Weather History for Youngstown, OH

Change the Weather History Date:

Wednesday, January 2, 2013

  Actual Average Record
Temperature  
Mean Temperature 16 °F 26 °F  
Max Temperature 22 °F 33 °F 61 °F (2000)
Min Temperature 9 °F 20 °F -5 °F (1945)
Degree Days  
Heating Degree Days 49 39  
Month to date heating degree days 89 78  
Since 1 July heating degree days 2352 2484  
Cooling Degree Days 0 0  
Month to date cooling degree days 0 0  
Year to date cooling degree days 0 0  
Moisture  
Dew Point 10 °F    
Average Humidity 76    
Maximum Humidity 84    
Minimum Humidity 67    
Precipitation  
Precipitation T in 0.09 in 0.82 in (1965)
Month to date precipitation 0.03 0.18  
Year to date precipitation 0.03 0.18  
Snow  
Snow T in 0.50 in - ()
Month to date snowfall 0.4 1.0  
Since 1 July snowfall 27.6 20.4  
Snow Depth 7.00 in    
Sea Level Pressure  
Sea Level Pressure 30.17 in    
Wind  
Wind Speed 6 mph (WSW)    
Max Wind Speed 13 mph    
Max Gust Speed 16 mph    
Visibility 9 miles    
Events Snow    
T = Trace of Precipitation, MM = Missing Value Source: NWS Daily Summary

Daily Weather History Graph

Daily Weather History Graph

Search for Another Location

Airport:

Trip Planner

Search our weather history database for the weather conditions in past years. The results will help you decide how hot, cold, wet, or windy it might be!

Date:

Astronomy

Jan. 02, 2013 Rise Set
Actual Time 7:48 AM EST 5:05 PM EST
Civil Twilight 7:17 AM EST 5:36 PM EST
Nautical Twilight 6:42 AM EST 6:11 PM EST
Astronomical Twilight 6:09 AM EST 6:44 PM EST
Moon 10:40 PM EST (1/2) 10:26 AM EST (1/2)
Length of Visible Light 10h 19m
Length of Day
9h 16m
Waning Gibbous, 75% of the Moon is Illuminated
Jan 2
Waning Gibbous
Jan 4
Last Quarter
Jan 11
New
Jan 18
First Quarter
Jan 26
Full

Hourly Weather History & Observations

Time (EST) Temp. Windchill Dew Point Humidity Pressure Visibility Wind Dir Wind Speed Gust Speed Precip Events Conditions
12:51 AM 21.0 °F 11.4 °F 12.0 °F 68% 30.09 in 9.0 mi West 8.1 mph - 0.00 in Snow Light Snow
1:51 AM 19.9 °F 9.3 °F 10.9 °F 68% 30.08 in 9.0 mi WSW 9.2 mph - 0.00 in Snow Light Snow
2:51 AM 19.0 °F 10.0 °F 10.0 °F 68% 30.10 in 9.0 mi WSW 6.9 mph - 0.00 in Snow Light Snow
3:51 AM 19.0 °F 11.1 °F 10.0 °F 68% 30.09 in 9.0 mi SW 5.8 mph - 0.00 in Snow Light Snow
4:51 AM 19.0 °F 9.0 °F 10.9 °F 71% 30.10 in 9.0 mi SW 8.1 mph - 0.00 in Snow Light Snow
5:51 AM 19.0 °F 9.0 °F 10.0 °F 68% 30.13 in 10.0 mi West 8.1 mph - 0.00 in   Overcast
6:51 AM 19.0 °F 10.0 °F 10.0 °F 68% 30.14 in 10.0 mi West 6.9 mph - N/A   Overcast
7:51 AM 16.0 °F 6.3 °F 9.0 °F 74% 30.15 in 10.0 mi SW 6.9 mph - N/A   Overcast
8:28 AM 15.8 °F 5.1 °F 8.6 °F 73% 30.09 in 10.0 mi SW 8.1 mph - N/A   Mostly Cloudy
8:51 AM 15.1 °F 6.4 °F 9.0 °F 77% 30.16 in 10.0 mi SW 5.8 mph - N/A   Overcast
9:51 AM 17.1 °F 6.6 °F 10.9 °F 77% 30.17 in 10.0 mi SW 8.1 mph - N/A   Overcast
10:51 AM 18.0 °F 8.7 °F 12.0 °F 78% 30.19 in 10.0 mi SW 6.9 mph - N/A   Overcast
11:51 AM 19.4 °F 10.4 °F 12.2 °F 74% 30.14 in 9.0 mi WSW 6.9 mph - N/A Snow Light Snow
12:51 PM 21.0 °F 10.6 °F 12.9 °F 71% 30.19 in 6.0 mi West 9.2 mph - 0.00 in Snow Light Snow
1:51 PM 21.0 °F 12.4 °F 14.0 °F 74% 30.19 in 7.0 mi West 6.9 mph - 0.00 in Snow Light Snow
2:51 PM 21.9 °F 11.7 °F 12.0 °F 66% 30.19 in 9.0 mi West 9.2 mph - 0.00 in Snow Light Snow
3:51 PM 21.0 °F 12.4 °F 12.0 °F 68% 30.20 in 9.0 mi SW 6.9 mph - 0.00 in   Overcast
4:51 PM 19.9 °F 14.9 °F 10.9 °F 68% 30.20 in 10.0 mi SW 3.5 mph - N/A   Overcast
5:51 PM 19.0 °F 13.9 °F 10.0 °F 68% 30.22 in 10.0 mi SW 3.5 mph - N/A   Overcast
6:51 PM 19.0 °F 13.9 °F 10.0 °F 68% 30.23 in 10.0 mi SSW 3.5 mph - 0.00 in Snow Light Snow
7:51 PM 18.0 °F - 10.0 °F 71% 30.24 in 9.0 mi Calm Calm - 0.00 in   Mostly Cloudy
8:19 PM 17.6 °F - 10.4 °F 73% 30.17 in 10.0 mi Calm Calm - N/A   Mostly Cloudy
8:51 PM 15.1 °F - 10.0 °F 80% 30.24 in 10.0 mi Calm Calm - N/A   Overcast
9:51 PM 12.9 °F - 9.0 °F 84% 30.25 in 10.0 mi Calm Calm - N/A   Mostly Cloudy
10:51 PM 12.0 °F 5.9 °F 8.1 °F 84% 30.25 in 9.0 mi South 3.5 mph - N/A   Scattered Clouds
11:51 PM 10.0 °F - 6.1 °F 84% 30.23 in 6.0 mi Calm Calm - N/A   Mostly Cloudy